This demonstration page uses our WeatherBlox Daily Observations layout. Learn more.

Left ArrowRight Arrow

36.17497, -115.13722

Hourly Observations for January 21, 2022

Temp ( °F °C ) Dew Point ( °F °C ) Humidity (%) Winds ( mph kmh ) Pressure ( in mb ) Visibility ( mi km ) Precip ( " mm )
12:53 am 00:53 Clear 44 6.7 22 -5.6 41 41 W 6 9 30.18 1022 10 16 0.00 0.00
1:53 am 01:53 Clear 43 6.1 21 -6.1 42 42 N 3 6 30.16 1022 10 16 0.00 0.00
2:53 am 02:53 Clear 41 5 19 -7.2 41 41 NNW 7 11 30.15 1021 10 16 0.00 0.00
3:53 am 03:53 Clear 42 5.6 17 -8.3 36 36 WNW 7 11 30.13 1020 10 16 0.00 0.00
4:53 am 04:53 Clear 43 6.1 17 -8.3 35 35 WNW 7 11 30.10 1019 10 16 0.00 0.00
5:53 am 05:53 Clear 42 5.6 17 -8.3 36 36 NW 6 9 30.11 1020 10 16 0.00 0.00
6:53 am 06:53 Sunny 42 5.6 17 -8.3 36 36 Calm 30.13 1020 10 16 0.00 0.00
7:53 am 07:53 Sunny 43 6.1 20 -6.7 40 40 Calm 30.13 1020 10 16 0.00 0.00
8:53 am 08:53 Sunny 45 7.2 20 -6.7 37 37 WSW 3 6 30.16 1021 10 16 0.00 0.00
9:53 am 09:53 Partly Cloudy 51 10.6 20 -6.7 29 29 SE 6 9 30.15 1021 10 16 0.00 0.00
10:53 am 10:53 Cloudy 53 11.7 20 -6.7 27 27 SE 6 9 30.15 1021 10 16 0.00 0.00
11:53 am 11:53 Cloudy 58 14.4 25 -3.9 28 28 NW 7 11 30.13 1020 10 16 0.00 0.00
12:53 pm 12:53 Mostly Cloudy 59 15 26 -3.3 28 28 NNW 8 13 30.09 1019 10 16 0.00 0.00
1:53 pm 13:53 Cloudy 61 16.1 26 -3.3 26 26 NE 15 24 30.07 1018 10 16 0.00 0.00
2:53 pm 14:53 Cloudy 60 15.6 26 -3.3 27 27 NNE 15 24 30.08 1019 10 16 0.00 0.00
3:53 pm 15:53 Cloudy 60 15.6 25 -3.9 26 26 NNE 16 26 30.09 1019 10 16 0.00 0.00
4:53 pm 16:53 Cloudy 59 15 24 -4.4 26 26 NNE 22 35 30.11 1020 10 16 0.00 0.00
5:53 pm 17:53 Cloudy 57 13.9 22 -5.6 26 26 N 17 28 30.13 1020 10 16 0.00 0.00
6:53 pm 18:53 Mostly Cloudy 56 13.3 20 -6.7 24 24 N 15 24 30.16 1021 10 16 0.00 0.00
7:53 pm 19:53 Cloudy 56 13.3 19 -7.2 24 24 NNW 13 20 30.16 1021 10 16 0.00 0.00
8:53 pm 20:53 Cloudy 54 12.2 20 -6.7 26 26 NW 17 28 30.17 1022 10 16 0.00 0.00
9:53 pm 21:53 Mostly Clear 54 12.2 20 -6.7 26 26 NW 12 19 30.17 1022 10 16 0.00 0.00
10:53 pm 22:53 Mostly Cloudy 52 11.1 20 -6.7 28 28 NNW 8 13 30.18 1022 10 16 0.00 0.00
11:53 pm 23:53 Mostly Clear 51 10.6 20 -6.7 29 29 NW 15 24 30.18 1022 10 16 0.00 0.00

Powered by AerisWeather